AUA18Y LOWW-EDDM

Flight info

Callsign AUA18Y
Flight time 0h 52m
Altitude 26000
Route SOVIL DCT SITNI DCT BAGSI DCT MATIG DCT AMADI Q113 NAPSA NAPSA1B
Aircraft A321/M-SDE3FGHIRWY/LB1

Departure

Time 2026-05-06 18:21
Airport Vienna International Airport (LOWW)

Arrival

Time 2026-05-06 19:14
Airport Munich Airport (EDDM)
Time Latitude Longitude Altitude Speed Heading
2026-05-06 17:45 48.12042 16.56875 618 ft 0 kts 26°
2026-05-06 18:11 48.12025 16.56862 628 ft 4 kts 26°
2026-05-06 18:11 48.12005 16.56844 626 ft 4 kts 74°
2026-05-06 18:11 48.12008 16.56812 626 ft 2 kts 116°
2026-05-06 18:11 48.12011 16.56804 626 ft 0 kts 116°
2026-05-06 18:13 48.12011 16.56805 626 ft 1 kts 116°
2026-05-06 18:13 48.11989 16.56871 621 ft 12 kts 116°
2026-05-06 18:14 48.11954 16.56979 618 ft 11 kts 116°
2026-05-06 18:14 48.11919 16.57085 614 ft 11 kts 116°
2026-05-06 18:14 48.11881 16.57182 622 ft 11 kts 138°
2026-05-06 18:14 48.11841 16.57270 621 ft 10 kts 99°
2026-05-06 18:15 48.11882 16.57313 616 ft 8 kts 350°
2026-05-06 18:15 48.11938 16.57293 613 ft 10 kts 351°
2026-05-06 18:15 48.11996 16.57366 616 ft 12 kts 72°
2026-05-06 18:15 48.12013 16.57488 610 ft 12 kts 94°
2026-05-06 18:16 48.11999 16.57572 619 ft 2 kts 105°
2026-05-06 18:16 48.11999 16.57574 619 ft 0 kts 105°
2026-05-06 18:18 48.11994 16.57600 610 ft 8 kts 105°
2026-05-06 18:18 48.11973 16.57722 614 ft 13 kts 105°
2026-05-06 18:19 48.11960 16.57822 618 ft 5 kts 129°
2026-05-06 18:19 48.11941 16.57832 613 ft 3 kts 162°
2026-05-06 18:19 48.11937 16.57834 613 ft 0 kts 164°
2026-05-06 18:20 48.11930 16.57837 614 ft 6 kts 164°
2026-05-06 18:21 48.11698 16.57937 613 ft 69 kts 164°
2026-05-06 18:21 48.11047 16.58212 620 ft 123 kts 164°
2026-05-06 18:21 48.10101 16.58609 777 ft 147 kts 165°
2026-05-06 18:21 48.09114 16.59010 1368 ft 148 kts 167°
2026-05-06 18:22 48.08117 16.59416 1933 ft 152 kts 169°
2026-05-06 18:22 48.07021 16.59849 2197 ft 173 kts 171°
2026-05-06 18:22 48.05799 16.59977 2408 ft 189 kts 197°
2026-05-06 18:22 48.04649 16.58732 2569 ft 221 kts 226°
2026-05-06 18:23 48.03831 16.56705 3121 ft 237 kts 240°
2026-05-06 18:23 48.03131 16.54479 4009 ft 237 kts 241°
2026-05-06 18:23 48.02438 16.52228 4832 ft 240 kts 242°
2026-05-06 18:23 48.01729 16.49941 5574 ft 245 kts 241°
2026-05-06 18:24 48.00973 16.47648 6316 ft 248 kts 241°
2026-05-06 18:24 48.00198 16.45330 7033 ft 251 kts 241°
2026-05-06 18:24 47.99412 16.42987 7744 ft 254 kts 241°
2026-05-06 18:24 47.98609 16.40612 8465 ft 259 kts 240°
2026-05-06 18:25 47.97759 16.38159 8827 ft 277 kts 240°
2026-05-06 18:25 47.96829 16.35516 9134 ft 294 kts 240°
2026-05-06 18:25 47.95862 16.32788 9757 ft 300 kts 240°
2026-05-06 18:25 47.94881 16.30028 10360 ft 305 kts 240°
2026-05-06 18:26 47.93863 16.27208 10879 ft 311 kts 242°
2026-05-06 18:26 47.93204 16.24118 11474 ft 319 kts 261°
2026-05-06 18:26 47.93341 16.20783 12066 ft 328 kts 278°
2026-05-06 18:26 47.93639 16.18564 12503 ft 330 kts 278°
2026-05-06 18:27 47.94269 16.14051 13351 ft 335 kts 279°
2026-05-06 18:27 47.94754 16.10622 13933 ft 339 kts 278°
2026-05-06 18:27 47.95243 16.07167 14531 ft 341 kts 278°
2026-05-06 18:27 47.95730 16.03692 15128 ft 343 kts 278°
2026-05-06 18:28 47.96052 16.01378 15529 ft 345 kts 278°
2026-05-06 18:28 47.96536 15.97864 16116 ft 347 kts 278°
2026-05-06 18:28 47.97023 15.94323 16665 ft 349 kts 277°
2026-05-06 18:28 47.97508 15.90769 17237 ft 350 kts 277°
2026-05-06 18:29 47.97993 15.87198 17867 ft 351 kts 277°
2026-05-06 18:29 47.98477 15.83623 18428 ft 353 kts 277°
2026-05-06 18:29 47.98967 15.80024 18910 ft 355 kts 277°
2026-05-06 18:29 47.99461 15.76397 19366 ft 358 kts 277°
2026-05-06 18:30 47.99955 15.72744 19823 ft 360 kts 277°
2026-05-06 18:30 48.00451 15.69067 20276 ft 362 kts 277°
2026-05-06 18:30 48.00948 15.65367 20770 ft 364 kts 276°
2026-05-06 18:30 48.01444 15.61646 21216 ft 367 kts 276°
2026-05-06 18:31 48.01942 15.57889 21644 ft 369 kts 276°
2026-05-06 18:31 48.02444 15.54113 22026 ft 371 kts 276°
2026-05-06 18:31 48.02950 15.50318 22400 ft 373 kts 276°
2026-05-06 18:31 48.03458 15.46514 22802 ft 375 kts 276°
2026-05-06 18:32 48.03969 15.42666 23027 ft 382 kts 276°
2026-05-06 18:32 48.04481 15.38722 23163 ft 390 kts 275°
2026-05-06 18:32 48.04698 15.34676 23300 ft 394 kts 267°
2026-05-06 18:32 48.04760 15.30588 23411 ft 402 kts 267°
2026-05-06 18:33 48.04823 15.26375 23625 ft 407 kts 267°
2026-05-06 18:33 48.04887 15.22131 23935 ft 410 kts 267°
2026-05-06 18:33 48.04952 15.17869 24258 ft 411 kts 267°
2026-05-06 18:33 48.05016 15.13588 24587 ft 413 kts 267°
2026-05-06 18:34 48.05082 15.09296 24909 ft 414 kts 267°
2026-05-06 18:34 48.05145 15.04990 25247 ft 415 kts 267°
2026-05-06 18:34 48.05206 15.00677 25611 ft 416 kts 267°
2026-05-06 18:34 48.05266 14.96362 25715 ft 414 kts 267°
2026-05-06 18:35 48.05322 14.92079 25728 ft 411 kts 266°
2026-05-06 18:35 48.05373 14.87811 25719 ft 411 kts 266°
2026-05-06 18:35 48.05422 14.83543 25728 ft 410 kts 266°
2026-05-06 18:35 48.05469 14.79283 25731 ft 410 kts 266°
2026-05-06 18:36 48.05508 14.75016 25711 ft 410 kts 266°
2026-05-06 18:36 48.05541 14.70764 25724 ft 410 kts 266°
2026-05-06 18:36 48.05571 14.66503 25722 ft 410 kts 266°
2026-05-06 18:36 48.05599 14.62237 25726 ft 410 kts 266°
2026-05-06 18:37 48.05626 14.57980 25749 ft 410 kts 266°
2026-05-06 18:37 48.05652 14.53728 25741 ft 409 kts 265°
2026-05-06 18:37 48.05676 14.49482 25742 ft 408 kts 265°
2026-05-06 18:37 48.05701 14.45298 25743 ft 408 kts 265°
2026-05-06 18:38 48.05725 14.41005 25756 ft 407 kts 265°
2026-05-06 18:38 48.05746 14.36838 25757 ft 407 kts 265°
2026-05-06 18:38 48.05763 14.32602 25748 ft 407 kts 265°
2026-05-06 18:38 48.05781 14.28375 25746 ft 407 kts 265°
2026-05-06 18:39 48.05802 14.24148 25742 ft 407 kts 265°
2026-05-06 18:39 48.05822 14.19917 25698 ft 406 kts 265°
2026-05-06 18:39 48.05840 14.15720 24990 ft 404 kts 265°
2026-05-06 18:40 48.05859 14.07297 23396 ft 404 kts 265°
2026-05-06 18:40 48.05867 14.03121 22792 ft 396 kts 265°
2026-05-06 18:40 48.05878 13.99053 22243 ft 388 kts 265°
2026-05-06 18:40 48.05887 13.95052 21610 ft 382 kts 265°
2026-05-06 18:41 48.05894 13.91130 21214 ft 371 kts 265°
2026-05-06 18:41 48.05894 13.87230 20969 ft 385 kts 265°
2026-05-06 18:41 48.05887 13.83235 20716 ft 391 kts 265°
2026-05-06 18:41 48.05884 13.79160 20463 ft 392 kts 265°
2026-05-06 18:42 48.05883 13.75090 20212 ft 391 kts 265°
2026-05-06 18:42 48.05885 13.71025 19992 ft 390 kts 266°
2026-05-06 18:42 48.05887 13.66984 19746 ft 388 kts 266°
2026-05-06 18:42 48.05884 13.62958 19500 ft 387 kts 266°
2026-05-06 18:43 48.05877 13.58940 19257 ft 386 kts 265°
2026-05-06 18:43 48.05868 13.54927 19030 ft 385 kts 266°
2026-05-06 18:43 48.05932 13.50922 18795 ft 386 kts 269°
2026-05-06 18:43 48.06109 13.46919 18554 ft 386 kts 270°
2026-05-06 18:44 48.06352 13.42927 18315 ft 385 kts 271°
2026-05-06 18:44 48.06618 13.38943 18079 ft 384 kts 271°
2026-05-06 18:44 48.06878 13.34973 17834 ft 383 kts 271°
2026-05-06 18:44 48.07119 13.31026 17567 ft 381 kts 271°
2026-05-06 18:45 48.07340 13.27090 17305 ft 375 kts 271°
2026-05-06 18:45 48.07543 13.23263 16871 ft 364 kts 270°
2026-05-06 18:45 48.07734 13.19542 16451 ft 355 kts 270°
2026-05-06 18:45 48.07917 13.15942 16019 ft 348 kts 270°
2026-05-06 18:46 48.08098 13.12314 15580 ft 345 kts 270°
2026-05-06 18:46 48.08273 13.08751 15130 ft 342 kts 270°
2026-05-06 18:46 48.08446 13.05216 14685 ft 339 kts 270°
2026-05-06 18:46 48.08618 13.01710 14241 ft 337 kts 270°
2026-05-06 18:47 48.08789 12.98233 13801 ft 334 kts 270°
2026-05-06 18:47 48.08959 12.94782 13292 ft 332 kts 270°
2026-05-06 18:47 48.09131 12.91394 12813 ft 330 kts 271°
2026-05-06 18:47 48.09377 12.87913 12635 ft 346 kts 273°
2026-05-06 18:48 48.09706 12.84291 12593 ft 356 kts 275°
2026-05-06 18:48 48.10077 12.80611 12498 ft 359 kts 276°
2026-05-06 18:48 48.10573 12.76956 12414 ft 358 kts 286°
2026-05-06 18:48 48.11753 12.73741 12140 ft 351 kts 303°
2026-05-06 18:49 48.13233 12.70898 11761 ft 343 kts 304°
2026-05-06 18:49 48.14707 12.68139 11382 ft 335 kts 304°
2026-05-06 18:49 48.16151 12.65453 11002 ft 328 kts 304°
2026-05-06 18:49 48.17569 12.62825 10636 ft 321 kts 304°
2026-05-06 18:50 48.18961 12.60251 10278 ft 315 kts 304°
2026-05-06 18:50 48.20340 12.57710 9922 ft 313 kts 304°
2026-05-06 18:50 48.21709 12.55193 9546 ft 311 kts 304°
2026-05-06 18:50 48.23069 12.52674 9149 ft 308 kts 303°
2026-05-06 18:51 48.24363 12.50133 8755 ft 305 kts 302°
2026-05-06 18:51 48.25610 12.47585 8368 ft 302 kts 302°
2026-05-06 18:51 48.26832 12.45045 7991 ft 299 kts 302°
2026-05-06 18:51 48.28039 12.42528 7619 ft 295 kts 302°
2026-05-06 18:52 48.29233 12.40042 7245 ft 292 kts 302°
2026-05-06 18:52 48.30421 12.37583 6868 ft 289 kts 302°
2026-05-06 18:52 48.31595 12.35154 6509 ft 286 kts 302°
2026-05-06 18:52 48.32740 12.32779 6149 ft 283 kts 302°
2026-05-06 18:53 48.33888 12.30396 5766 ft 280 kts 302°
2026-05-06 18:53 48.35024 12.28043 5382 ft 276 kts 303°
2026-05-06 18:53 48.36143 12.25728 5065 ft 271 kts 302°
2026-05-06 18:53 48.37037 12.23284 5021 ft 262 kts 287°
2026-05-06 18:54 48.37392 12.20728 5028 ft 240 kts 272°
2026-05-06 18:54 48.37300 12.18317 5020 ft 225 kts 264°
2026-05-06 18:54 48.37130 12.15988 5020 ft 223 kts 264°
2026-05-06 18:54 48.36962 12.13667 5019 ft 223 kts 264°
2026-05-06 18:55 48.36791 12.11343 5016 ft 222 kts 265°
2026-05-06 18:55 48.36628 12.09126 5028 ft 203 kts 265°
2026-05-06 18:55 48.36478 12.07112 4940 ft 188 kts 265°
2026-05-06 18:55 48.36337 12.05191 4742 ft 183 kts 265°
2026-05-06 18:56 48.36197 12.03305 4518 ft 181 kts 265°
2026-05-06 18:56 48.36058 12.01441 4273 ft 179 kts 265°
2026-05-06 18:56 48.35920 11.99584 4029 ft 178 kts 265°
2026-05-06 18:56 48.35783 11.97742 3799 ft 175 kts 265°
2026-05-06 18:57 48.35649 11.95962 3590 ft 166 kts 265°
2026-05-06 18:57 48.35526 11.94320 3371 ft 151 kts 264°
2026-05-06 18:57 48.35413 11.92819 3180 ft 140 kts 265°
2026-05-06 18:57 48.35306 11.91392 2997 ft 136 kts 265°
2026-05-06 18:58 48.35201 11.89995 2819 ft 134 kts 265°
2026-05-06 18:58 48.35089 11.88521 2951 ft 154 kts 264°
2026-05-06 18:58 48.34961 11.86921 3927 ft 154 kts 265°
2026-05-06 18:58 48.34832 11.85265 4486 ft 168 kts 265°
2026-05-06 18:59 48.34696 11.83442 4686 ft 188 kts 265°
2026-05-06 18:59 48.34524 11.81395 4979 ft 205 kts 259°
2026-05-06 18:59 48.33819 11.79516 5025 ft 214 kts 227°
2026-05-06 18:59 48.32456 11.78539 5032 ft 228 kts 194°
2026-05-06 19:00 48.30844 11.78852 5029 ft 244 kts 163°
2026-05-06 19:00 48.29804 11.79622 5033 ft 248 kts 156°
2026-05-06 19:00 48.27825 11.81359 5033 ft 249 kts 155°
2026-05-06 19:00 48.26863 11.82316 5032 ft 253 kts 143°
2026-05-06 19:01 48.25674 11.85371 5039 ft 262 kts 99°
2026-05-06 19:01 48.25607 11.88101 5035 ft 264 kts 86°
2026-05-06 19:01 48.25710 11.90850 5034 ft 264 kts 85°
2026-05-06 19:01 48.25840 11.93602 5035 ft 264 kts 84°
2026-05-06 19:02 48.25977 11.96342 5035 ft 263 kts 84°
2026-05-06 19:02 48.26112 11.99079 5035 ft 263 kts 84°
2026-05-06 19:02 48.26242 12.01814 5034 ft 263 kts 84°
2026-05-06 19:02 48.26371 12.04559 5035 ft 264 kts 84°
2026-05-06 19:03 48.26504 12.07316 5031 ft 264 kts 84°
2026-05-06 19:03 48.26646 12.10038 4804 ft 265 kts 84°
2026-05-06 19:03 48.26793 12.12792 4498 ft 264 kts 84°
2026-05-06 19:03 48.26927 12.15535 4177 ft 263 kts 84°
2026-05-06 19:04 48.27051 12.18261 4005 ft 262 kts 84°
2026-05-06 19:04 48.27272 12.20971 4010 ft 260 kts 68°
2026-05-06 19:04 48.28184 12.23230 4011 ft 249 kts 35°
2026-05-06 19:04 48.29634 12.24464 4012 ft 236 kts
2026-05-06 19:05 48.31204 12.25125 4011 ft 232 kts
2026-05-06 19:05 48.32768 12.25701 4011 ft 231 kts
2026-05-06 19:05 48.34330 12.26066 4010 ft 220 kts 347°
2026-05-06 19:05 48.35726 12.25367 4011 ft 208 kts 321°
2026-05-06 19:06 48.36757 12.23964 4014 ft 201 kts 301°
2026-05-06 19:06 48.37351 12.22102 4015 ft 197 kts 282°
2026-05-06 19:06 48.37432 12.20054 4010 ft 197 kts 265°
2026-05-06 19:06 48.37280 12.18010 4022 ft 194 kts 266°
2026-05-06 19:07 48.37138 12.16089 4015 ft 175 kts 265°
2026-05-06 19:07 48.37053 12.14919 4015 ft 166 kts 265°
2026-05-06 19:07 48.36890 12.12703 4008 ft 152 kts 265°
2026-05-06 19:07 48.36775 12.11135 4003 ft 149 kts 265°
2026-05-06 19:08 48.36662 12.09592 4004 ft 148 kts 265°
2026-05-06 19:08 48.36551 12.08094 4001 ft 140 kts 265°
2026-05-06 19:08 48.36445 12.06660 4013 ft 136 kts 266°
2026-05-06 19:08 48.36343 12.05273 4013 ft 135 kts 265°
2026-05-06 19:09 48.36240 12.03876 4014 ft 135 kts 265°
2026-05-06 19:09 48.36136 12.02477 4010 ft 135 kts 265°
2026-05-06 19:09 48.36031 12.01074 4009 ft 135 kts 266°
2026-05-06 19:09 48.35927 11.99672 3961 ft 135 kts 265°
2026-05-06 19:10 48.35823 11.98277 3833 ft 134 kts 265°
2026-05-06 19:10 48.35719 11.96885 3679 ft 134 kts 265°
2026-05-06 19:10 48.35614 11.95495 3515 ft 133 kts 265°
2026-05-06 19:10 48.35512 11.94123 3337 ft 131 kts 264°
2026-05-06 19:11 48.35410 11.92757 3164 ft 132 kts 264°
2026-05-06 19:11 48.35310 11.91384 2990 ft 132 kts 265°
2026-05-06 19:11 48.35207 11.90008 2826 ft 133 kts 265°
2026-05-06 19:11 48.35098 11.88628 2638 ft 133 kts 264°
2026-05-06 19:12 48.34997 11.87247 2460 ft 134 kts 264°
2026-05-06 19:12 48.34895 11.85847 2245 ft 134 kts 262°
2026-05-06 19:12 48.34783 11.84474 2041 ft 130 kts 261°
2026-05-06 19:12 48.34679 11.83136 1843 ft 127 kts 263°
2026-05-06 19:13 48.34591 11.81839 1688 ft 122 kts 261°
2026-05-06 19:13 48.34489 11.80563 1537 ft 125 kts 260°
2026-05-06 19:13 48.34394 11.79288 1477 ft 116 kts 258°
2026-05-06 19:13 48.34317 11.78306 1485 ft 66 kts 264°
2026-05-06 19:14 48.34338 11.77919 1475 ft 28 kts 291°
2026-05-06 19:14 48.34412 11.77656 1485 ft 26 kts 294°
2026-05-06 19:14 48.34482 11.77471 1482 ft 17 kts 324°
2026-05-06 19:14 48.34591 11.77432 1480 ft 15 kts 358°
2026-05-06 19:15 48.34636 11.77539 1482 ft 13 kts 82°
2026-05-06 19:15 48.34647 11.77677 1481 ft 14 kts 83°
2026-05-06 19:15 48.34659 11.77830 1485 ft 16 kts 82°
2026-05-06 19:15 48.34672 11.77997 1485 ft 16 kts 84°
2026-05-06 19:16 48.34683 11.78157 1476 ft 15 kts 83°
2026-05-06 19:16 48.34696 11.78312 1473 ft 15 kts 82°
2026-05-06 19:16 48.34708 11.78470 1485 ft 16 kts 84°
2026-05-06 19:16 48.34717 11.78587 1485 ft 18 kts 83°
2026-05-06 19:17 48.34732 11.78785 1485 ft 21 kts 83°
2026-05-06 19:17 48.34750 11.79019 1485 ft 23 kts 82°
2026-05-06 19:17 48.34767 11.79239 1480 ft 19 kts 83°
2026-05-06 19:17 48.34781 11.79420 1485 ft 15 kts 83°
2026-05-06 19:18 48.34804 11.79542 1473 ft 10 kts 43°
2026-05-06 19:18 48.34859 11.79557 1481 ft 6 kts 354°
2026-05-06 19:18 48.34891 11.79549 1482 ft 3 kts 353°
2026-05-06 19:18 48.34918 11.79547 1481 ft 5 kts 356°
2026-05-06 19:19 48.34968 11.79554 1486 ft 8 kts 24°
2026-05-06 19:19 48.35040 11.79542 1483 ft 13 kts 21°
2026-05-06 19:19 48.35067 11.79647 1485 ft 10 kts 83°
2026-05-06 19:19 48.35074 11.79730 1483 ft 7 kts 83°
2026-05-06 19:20 48.35079 11.79793 1485 ft 7 kts 83°
2026-05-06 19:20 48.35086 11.79879 1474 ft 11 kts 84°
2026-05-06 19:20 48.35096 11.80020 1483 ft 15 kts 84°
2026-05-06 19:20 48.35107 11.80162 1485 ft 12 kts 83°
2026-05-06 19:21 48.35147 11.80227 1477 ft 8 kts
2026-05-06 19:21 48.35200 11.80219 1483 ft 9 kts 353°
2026-05-06 19:21 48.35283 11.80205 1480 ft 15 kts 353°
2026-05-06 19:21 48.35353 11.80192 1485 ft 0 kts 353°
2026-05-06 19:23 48.35367 11.80190 1475 ft 5 kts 352°
2026-05-06 19:23 48.35433 11.80165 1482 ft 13 kts 351°
2026-05-06 19:23 48.35507 11.80152 1477 ft 9 kts 353°
2026-05-06 19:23 48.35559 11.80141 1475 ft 7 kts 352°
2026-05-06 19:24 48.35616 11.80127 1482 ft 8 kts 340°
2026-05-06 19:24 48.35638 11.80071 1478 ft 5 kts 270°
2026-05-06 19:24 48.35634 11.80006 1476 ft 6 kts 264°
2026-05-06 19:24 48.35632 11.79980 1485 ft 0 kts 264°